�������l�o���
Date,Time,MP-1(��Sv/h),MP-2(��Sv/h),MP-3(��Sv/h),MP-4(��Sv/h),MP-5(��Sv/h),MP-6(��Sv/h),MP-7(��Sv/h),MP-8(��Sv/h),����,����(m/s),���J
2019/11/03,00:00,0.718,1.025,0.666,1.255,0.887,0.416,0.714,0.679,��쐼,2.6,��
2019/11/03,00:10,0.718,1.023,0.666,1.255,0.888,0.415,0.713,0.679,��쐼,1.7,��
2019/11/03,00:20,0.717,1.022,0.666,1.254,0.888,0.414,0.717,0.677,��쐼,2.6,��
2019/11/03,00:30,0.718,1.023,0.666,1.254,0.888,0.414,0.716,0.678,��쐼,3.1,��
2019/11/03,00:40,0.717,1.023,0.668,1.253,0.888,0.415,0.714,0.678,���쐼,3.2,��
2019/11/03,00:50,0.718,1.025,0.666,1.254,0.886,0.416,0.713,0.679,���쐼,2.9,��
2019/11/03,01:00,0.718,1.023,0.664,1.255,0.886,0.413,0.715,0.677,��,2.3,��
2019/11/03,01:10,0.718,1.023,0.666,1.253,0.887,0.413,0.715,0.677,�k��,2.1,��
2019/11/03,01:20,0.717,1.024,0.666,1.255,0.887,0.415,0.715,0.677,�k��,2.6,��
2019/11/03,01:30,0.717,1.025,0.666,1.255,0.888,0.415,0.715,0.680,�k��,2.5,��
2019/11/03,01:40,0.717,1.022,0.665,1.254,0.887,0.414,0.715,0.678,�k�k��,3.0,��
2019/11/03,01:50,0.717,1.025,0.665,1.254,0.887,0.414,0.715,0.677,�k�k��,3.6,��
2019/11/03,02:00,0.717,1.024,0.665,1.252,0.887,0.414,0.715,0.679,�k�k��,2.0,��
2019/11/03,02:10,0.717,1.023,0.666,1.253,0.889,0.414,0.717,0.679,�k��,1.8,��
2019/11/03,02:20,0.716,1.023,0.666,1.255,0.888,0.412,0.714,0.679,�k��,2.1,��
2019/11/03,02:30,0.718,1.024,0.666,1.253,0.886,0.415,0.715,0.679,�k��,2.0,��
2019/11/03,02:40,0.718,1.026,0.665,1.254,0.887,0.415,0.716,0.680,�k��,1.9,��
2019/11/03,02:50,0.715,1.022,0.665,1.254,0.888,0.416,0.715,0.678,���k��,1.4,��
2019/11/03,03:00,0.719,1.024,0.667,1.256,0.888,0.413,0.714,0.678,���쐼,0.9,��
2019/11/03,03:10,0.717,1.023,0.665,1.254,0.886,0.415,0.715,0.678,��,0.8,��
2019/11/03,03:20,0.718,1.020,0.667,1.253,0.888,0.415,0.716,0.679,���k��,1.5,��
2019/11/03,03:30,0.717,1.023,0.668,1.254,0.887,0.413,0.715,0.678,���k��,1.8,��
2019/11/03,03:40,0.718,1.025,0.666,1.255,0.887,0.414,0.715,0.678,�k�k��,2.0,��
2019/11/03,03:50,0.718,1.023,0.666,1.255,0.887,0.414,0.714,0.678,�k�k��,3.0,��
2019/11/03,04:00,0.716,1.022,0.665,1.253,0.889,0.414,0.715,0.678,�k�k��,3.0,��
2019/11/03,04:10,0.719,1.022,0.667,1.253,0.887,0.415,0.715,0.677,�k�k��,2.9,��
2019/11/03,04:20,0.717,1.024,0.665,1.255,0.887,0.414,0.715,0.678,�k�k��,3.1,��
2019/11/03,04:30,0.719,1.023,0.667,1.254,0.887,0.414,0.714,0.678,�k,3.3,��
2019/11/03,04:40,0.716,1.022,0.666,1.254,0.887,0.414,0.714,0.678,�k,3.0,��
2019/11/03,04:50,0.718,1.022,0.667,1.256,0.888,0.415,0.716,0.678,�k,2.4,��
2019/11/03,05:00,0.716,1.020,0.667,1.254,0.887,0.413,0.713,0.678,�k,2.5,��
2019/11/03,05:10,0.719,1.021,0.666,1.255,0.888,0.412,0.714,0.678,�k,2.7,��
2019/11/03,05:20,0.718,1.023,0.666,1.254,0.890,0.414,0.714,0.678,�k,2.6,��
2019/11/03,05:30,0.717,1.023,0.667,1.253,0.888,0.414,0.716,0.679,�k�k��,2.1,��
2019/11/03,05:40,0.718,1.021,0.666,1.257,0.887,0.415,0.714,0.678,�k�k��,2.4,��
2019/11/03,05:50,0.719,1.023,0.665,1.253,0.888,0.413,0.713,0.680,�k,2.7,��
2019/11/03,06:00,0.715,1.023,0.667,1.253,0.886,0.416,0.715,0.678,�k,1.8,��
2019/11/03,06:10,0.718,1.023,0.664,1.253,0.886,0.415,0.714,0.678,�k,1.7,��
2019/11/03,06:20,0.716,1.023,0.665,1.256,0.888,0.415,0.715,0.679,�k�k��,1.4,��
2019/11/03,06:30,0.715,1.022,0.667,1.255,0.886,0.415,0.715,0.678,�k��,2.1,��
2019/11/03,06:40,0.717,1.022,0.666,1.255,0.887,0.413,0.713,0.679,�k��,1.2,��
2019/11/03,06:50,0.717,1.023,0.666,1.257,0.884,0.416,0.714,0.678,-,CALM,��
2019/11/03,07:00,0.718,1.024,0.667,1.254,0.887,0.414,0.716,0.678,���k��,0.6,��
2019/11/03,07:10,0.719,1.023,0.665,1.253,0.887,0.415,0.716,0.679,-,CALM,��
2019/11/03,07:20,0.719,1.023,0.665,1.253,0.887,0.415,0.716,0.677,���k��,0.6,��
2019/11/03,07:30,0.718,1.024,0.664,1.254,0.887,0.413,0.716,0.677,���k��,1.1,��
2019/11/03,07:40,0.718,1.023,0.666,1.253,0.888,0.415,0.715,0.680,-,CALM,��
2019/11/03,07:50,0.719,1.022,0.668,1.254,0.886,0.415,0.715,0.681,��쓌,0.6,��
2019/11/03,08:00,0.718,1.022,0.666,1.255,0.888,0.416,0.715,0.679,-,CALM,��
2019/11/03,08:10,0.720,1.022,0.666,1.252,0.887,0.415,0.716,0.680,��,0.9,��
2019/11/03,08:20,0.719,1.025,0.668,1.255,0.887,0.415,0.715,0.680,�k,0.7,��
2019/11/03,08:30,0.719,1.024,0.667,1.254,0.887,0.414,0.715,0.679,�k�k��,1.1,��
2019/11/03,08:40,0.721,1.024,0.666,1.256,0.885,0.414,0.717,0.679,-,CALM,��
2019/11/03,08:50,0.720,1.024,0.667,1.256,0.885,0.416,0.715,0.680,��,1.2,��
2019/11/03,09:00,0.719,1.024,0.667,1.255,0.890,0.414,0.715,0.678,�k��,1.1,��
2019/11/03,09:10,0.721,1.023,0.667,1.256,0.888,0.415,0.716,0.679,�k�k��,1.1,��
2019/11/03,09:20,0.719,1.023,0.667,1.255,0.890,0.415,0.716,0.679,-,CALM,��
2019/11/03,09:30,0.721,1.024,0.669,1.256,0.888,0.414,0.715,0.680,��,1.1,��
2019/11/03,09:40,0.720,1.023,0.668,1.253,0.889,0.413,0.714,0.680,��,1.5,��
2019/11/03,09:50,0.719,1.024,0.668,1.257,0.889,0.416,0.714,0.678,�k�k��,1.7,��
2019/11/03,10:00,0.719,1.025,0.668,1.256,0.889,0.414,0.716,0.680,�k��,1.9,��
2019/11/03,10:10,0.719,1.022,0.669,1.254,0.889,0.413,0.715,0.681,�k��,2.7,��
2019/11/03,10:20,0.721,1.026,0.670,1.258,0.892,0.413,0.717,0.679,�k�k��,3.1,��
2019/11/03,10:30,0.717,1.022,0.670,1.257,0.887,0.412,0.715,0.680,�k�k��,2.6,��
2019/11/03,10:40,0.719,1.023,0.669,1.260,0.888,0.415,0.716,0.678,�k��,2.8,��
2019/11/03,10:50,0.720,1.024,0.669,1.259,0.889,0.413,0.716,0.677,�k��,2.7,��
2019/11/03,11:00,0.719,1.025,0.670,1.259,0.889,0.415,0.716,0.679,�k�k��,2.8,��
2019/11/03,11:10,0.719,1.023,0.666,1.255,0.888,0.414,0.716,0.679,�k�k��,2.8,��
2019/11/03,11:20,0.721,1.025,0.670,1.257,0.887,0.413,0.717,0.680,�k�k��,3.4,��
2019/11/03,11:30,0.719,1.027,0.668,1.256,0.890,0.414,0.716,0.678,�k�k��,2.8,��
2019/11/03,11:40,0.720,1.024,0.669,1.257,0.888,0.414,0.715,0.679,�k�k��,2.9,��
2019/11/03,11:50,0.720,1.026,0.667,1.255,0.890,0.414,0.715,0.680,�k�k��,3.2,��
2019/11/03,12:00,0.722,1.025,0.664,1.256,0.889,0.415,0.716,0.678,�k�k��,2.6,��
2019/11/03,12:10,0.718,1.026,0.668,1.258,0.890,0.417,0.717,0.679,�k�k��,2.5,��
2019/11/03,12:20,0.719,1.029,0.667,1.258,0.889,0.413,0.716,0.678,�k�k��,3.3,��
2019/11/03,12:30,0.722,1.027,0.667,1.259,0.890,0.416,0.715,0.678,�k�k��,3.1,��
2019/11/03,12:40,0.719,1.030,0.667,1.257,0.888,0.415,0.716,0.676,�k�k��,3.1,��
2019/11/03,12:50,0.720,1.028,0.668,1.258,0.887,0.415,0.715,0.677,�k�k��,3.1,��
2019/11/03,13:00,0.721,1.028,0.668,1.258,0.889,0.415,0.717,0.678,�k�k��,3.8,��
2019/11/03,13:10,0.722,1.030,0.667,1.260,0.889,0.415,0.716,0.677,�k�k��,3.6,��
2019/11/03,13:20,0.720,1.029,0.667,1.258,0.890,0.415,0.716,0.676,�k�k��,2.8,��
2019/11/03,13:30,0.721,1.029,0.667,1.258,0.890,0.414,0.715,0.676,�k��,1.9,��
2019/11/03,13:40,0.721,1.026,0.667,1.260,0.891,0.414,0.716,0.676,�k�k��,1.8,��
2019/11/03,13:50,0.721,1.027,0.668,1.260,0.887,0.415,0.716,0.678,�k��,2.4,��
2019/11/03,14:00,0.720,1.029,0.667,1.261,0.889,0.414,0.716,0.677,��,2.1,��
2019/11/03,14:10,0.721,1.029,0.668,1.258,0.890,0.414,0.717,0.679,�k��,1.8,��
2019/11/03,14:20,0.719,1.029,0.668,1.260,0.889,0.413,0.716,0.678,�k��,1.7,��
2019/11/03,14:30,0.719,1.028,0.669,1.259,0.887,0.413,0.716,0.677,�k�k��,1.3,��
2019/11/03,14:40,0.722,1.027,0.668,1.261,0.890,0.415,0.715,0.678,�k��,1.5,��
2019/11/03,14:50,0.720,1.027,0.666,1.258,0.890,0.415,0.716,0.677,�k��,1.4,��
2019/11/03,15:00,0.721,1.028,0.666,1.259,0.889,0.414,0.715,0.678,�k��,1.7,��
2019/11/03,15:10,0.720,1.031,0.666,1.256,0.889,0.415,0.715,0.677,�k,2.6,��
2019/11/03,15:20,0.721,1.026,0.668,1.258,0.891,0.416,0.716,0.677,�k,1.5,��
2019/11/03,15:30,0.722,1.029,0.665,1.259,0.889,0.415,0.717,0.678,�k,1.5,��
2019/11/03,15:40,0.721,1.029,0.666,1.254,0.890,0.415,0.716,0.678,�k,0.7,��
2019/11/03,15:50,0.720,1.031,0.669,1.261,0.890,0.416,0.715,0.678,-,CALM,��
2019/11/03,16:00,0.720,1.031,0.669,1.257,0.891,0.417,0.714,0.677,-,CALM,��
2019/11/03,16:10,0.722,1.030,0.668,1.259,0.891,0.415,0.717,0.679,-,CALM,��
2019/11/03,16:20,0.723,1.031,0.668,1.261,0.891,0.416,0.714,0.679,-,CALM,��
2019/11/03,16:30,0.722,1.030,0.669,1.259,0.893,0.416,0.716,0.681,-,CALM,��
2019/11/03,16:40,0.722,1.031,0.668,1.258,0.894,0.417,0.717,0.680,-,CALM,��
2019/11/03,16:50,0.721,1.034,0.668,1.260,0.892,0.415,0.716,0.680,-,CALM,��
2019/11/03,17:00,0.724,1.031,0.671,1.260,0.890,0.416,0.717,0.682,��,0.7,��
2019/11/03,17:10,0.722,1.031,0.669,1.259,0.891,0.417,0.717,0.679,�k��,0.7,��
2019/11/03,17:20,0.720,1.032,0.669,1.259,0.894,0.416,0.716,0.681,�k�k��,1.5,��
2019/11/03,17:30,0.722,1.031,0.667,1.259,0.892,0.417,0.717,0.680,�k�k��,0.6,��
2019/11/03,17:40,0.723,1.032,0.670,1.258,0.893,0.415,0.717,0.681,�k�k��,1.0,��
2019/11/03,17:50,0.721,1.030,0.668,1.260,0.894,0.416,0.716,0.681,�k�k��,0.7,��
2019/11/03,18:00,0.721,1.031,0.669,1.260,0.894,0.415,0.716,0.680,�k�k��,1.3,��
2019/11/03,18:10,0.723,1.030,0.671,1.258,0.891,0.415,0.716,0.681,�k�k��,1.7,��
2019/11/03,18:20,0.720,1.029,0.668,1.261,0.890,0.415,0.717,0.680,�k�k��,1.8,��
2019/11/03,18:30,0.723,1.031,0.669,1.258,0.891,0.416,0.716,0.679,�k��,1.8,��
2019/11/03,18:40,0.724,1.030,0.669,1.259,0.893,0.415,0.716,0.679,�k��,1.7,��
2019/11/03,18:50,0.722,1.030,0.669,1.258,0.894,0.416,0.718,0.680,�k��,2.3,��
2019/11/03,19:00,0.721,1.031,0.668,1.260,0.894,0.415,0.717,0.680,�k�k��,2.8,��
2019/11/03,19:10,0.721,1.031,0.670,1.260,0.891,0.416,0.717,0.680,�k�k��,2.9,��
2019/11/03,19:20,0.721,1.032,0.669,1.260,0.892,0.414,0.716,0.680,�k��,3.0,��
2019/11/03,19:30,0.723,1.032,0.668,1.257,0.894,0.416,0.717,0.678,�k�k��,1.9,��
2019/11/03,19:40,0.721,1.031,0.670,1.258,0.893,0.415,0.716,0.681,���k��,1.2,��
2019/11/03,19:50,0.722,1.031,0.669,1.259,0.894,0.416,0.716,0.679,�k�k��,1.6,��
2019/11/03,20:00,0.721,1.031,0.671,1.262,0.891,0.415,0.716,0.681,�k�k��,1.1,��
2019/11/03,20:10,0.722,1.031,0.670,1.260,0.894,0.414,0.717,0.681,�k�k��,1.4,��
2019/11/03,20:20,0.722,1.030,0.670,1.259,0.893,0.416,0.715,0.682,�k�k��,2.3,��
2019/11/03,20:30,0.722,1.031,0.669,1.263,0.891,0.415,0.718,0.680,�k�k��,2.3,��
2019/11/03,20:40,0.722,1.032,0.668,1.258,0.893,0.414,0.717,0.680,�k��,2.2,��
2019/11/03,20:50,0.722,1.029,0.670,1.260,0.893,0.415,0.715,0.681,�k��,1.4,��
2019/11/03,21:00,0.721,1.029,0.670,1.261,0.892,0.416,0.713,0.680,�k��,1.8,��
2019/11/03,21:10,0.720,1.030,0.670,1.259,0.890,0.415,0.716,0.681,�k�k��,0.7,��
2019/11/03,21:20,0.722,1.031,0.669,1.260,0.891,0.416,0.718,0.680,�k�k��,0.6,��
2019/11/03,21:30,0.722,1.031,0.670,1.259,0.894,0.415,0.716,0.680,�k��,1.2,��
2019/11/03,21:40,0.721,1.031,0.669,1.260,0.893,0.415,0.716,0.680,�k��,1.4,��
2019/11/03,21:50,0.721,1.030,0.671,1.260,0.892,0.416,0.716,0.680,�k��,1.6,��
2019/11/03,22:00,0.723,1.030,0.669,1.259,0.893,0.415,0.717,0.681,�k��,1.5,��
2019/11/03,22:10,0.724,1.030,0.670,1.262,0.893,0.415,0.717,0.680,�k�k��,1.7,��
2019/11/03,22:20,0.722,1.031,0.670,1.259,0.891,0.415,0.716,0.681,�k�k��,2.2,��
2019/11/03,22:30,0.722,1.030,0.670,1.262,0.892,0.414,0.714,0.681,���k��,3.1,��
2019/11/03,22:40,0.722,1.031,0.670,1.260,0.893,0.416,0.714,0.680,�k��,2.6,��
2019/11/03,22:50,0.723,1.029,0.669,1.260,0.894,0.415,0.717,0.680,�k��,2.6,��
2019/11/03,23:00,0.723,1.028,0.668,1.259,0.893,0.415,0.714,0.681,�k�k��,2.5,��
2019/11/03,23:10,0.724,1.030,0.669,1.261,0.893,0.414,0.717,0.681,�k�k��,2.8,��
2019/11/03,23:20,0.723,1.029,0.668,1.260,0.893,0.415,0.715,0.682,�k�k��,2.9,��
2019/11/03,23:30,0.723,1.030,0.670,1.261,0.892,0.415,0.717,0.681,�k�k��,2.8,��
2019/11/03,23:40,0.721,1.030,0.669,1.260,0.893,0.415,0.718,0.681,�k�k��,3.0,��
2019/11/03,23:50,0.724,1.028,0.670,1.257,0.894,0.414,0.715,0.679,�k�k��,3.3,��
